User: anonymous   Login
Location: Nebula Knoll Observatory
(43.6666°N, 71.0000°W)
Time: 04:36:34
(UTC-05:00)
Language:

Cosmos 1782 - Orbit

View from above orbital plane
View from above orbital plane
View from above satellite
View from above satellite

Ground track
Ground track

The orbit data is extracted from the following two-line orbital elements,

1 16986U 86074A   18022.80930684 +.00000735 +00000-0 +47419-4 0  9990
2 16986 082.5057 267.5433 0010307 321.1418 038.9067 15.06770468682744
Epoch (UTC): 22 January 2018 19:25:24
Eccentricity: 0.0010307
inclination: 82.5057°
perigee height: 539 km
apogee height: 553 km
right ascension of ascending node: 267.5433°
argument of perigee: 321.1418°
revolutions per day: 15.06770468
mean anomaly at epoch: 38.9067°
orbit number at epoch: 68274

The dashed part of the orbit path shows where the satellite is in the earth's shadow,  

DLR